IW2HNF-3 Weather Reports


time (UTC)temp
F
wind
direction
speed
knots
gust
knots
rain 1hr
in
rain 24hr
in
rain mn
in
humidity
%
barometer
mb
20260507023058 49 0.0 1.7 0.00 4.81 0.02 99 1010.2
20260507022034 49 0.0 0.9 0.00 4.81 0.02 99 1010.3
20260507021058 49 0.0 0.9 0.00 4.81 0.02 99 1010.3
20260507020746 49 0.0 1.7 0.00 4.81 0.02 99 1010.4
20260507015059 50 0.0 0.9 0.01 4.81 0.02 99 1010.2
20260507014035 50 0.0 0.0 0.02 4.81 0.02 99 1010.2
20260507013058 50 0.0 1.7 0.02 4.81 0.02 99 1010.1
20260507012033 50 0.0 1.7 0.02 4.81 0.02 99 1010.1
20260507011058 50 0.0 1.7 0.02 4.81 0.02 99 1010.1
20260507010034 50 0.0 0.9 0.02 4.81 0.02 99 1010.2
20260507005058 50 0.0 0.9 0.01 4.80 0.01 99 1010.1
20260507004035 50 0.0 0.0 0.00 4.78 0.00 99 1009.9
20260507003058 50 0.0 0.9 0.00 4.78 0.00 99 1009.8
20260507002034 50 0.0 0.9 0.00 4.78 0.00 99 1009.8
20260507001058 50 0.0 0.0 0.00 4.78 0.00 99 1009.9
20260507000747 50 0.0 0.0 0.00 4.78 0.00 99 1009.9
20260506235058 50 0.0 0.9 0.00 4.78 0.00 99 1009.9
20260506234034 50 0.0 0.9 0.00 4.78 0.00 99 1009.9
20260506233059 50 0.0 1.7 0.00 4.78 0.00 99 1009.9
20260506232034 50 0.0 1.7 0.00 4.78 0.00 99 1009.9
20260506231059 50 0.0 1.7 0.00 4.78 0.00 99 1009.8
20260506230034 50 0.0 1.7 0.00 4.78 0.00 99 1009.8
20260506225059 50 0.0 0.9 0.00 4.78 0.00 99 1009.7
20260506224034 50 0.0 0.9 0.00 4.78 0.00 99 1009.6
20260506223059 50 0.0 1.7 0.00 4.78 0.00 99 1009.6
20260506222034 50 0.0 1.7 0.00 4.78 0.00 99 1009.6
20260506221058 50 0.0 0.9 0.00 4.78 0.00 99 1009.6
20260506220746 50 338 0.0 1.7 0.00 4.78 0.00 99 1009.6
20260506215058 50 0.0 1.7 0.00 4.78 4.78 99 1009.5
20260506214035 50 0.0 1.7 0.00 4.78 4.78 99 1009.6
20260506213059 50 0.0 1.7 0.00 4.78 4.78 99 1009.6
20260506212035 50 0.0 1.7 0.00 4.78 4.78 99 1009.5
20260506211058 49 0.0 0.9 0.00 4.78 4.78 99 1009.4
20260506210034 49 0.0 0.9 0.00 4.78 4.78 99 1009.2
20260506205059 49 0 0.0 1.7 0.00 4.78 4.78 99 1009.3
20260506204034 50 0.0 0.9 0.00 4.78 4.78 99 1009.2
20260506203058 50 0.0 1.7 0.00 4.78 4.78 99 1009.2
20260506202035 50 0.0 1.7 0.00 4.78 4.78 99 1009.1
20260506201059 50 0.0 1.7 0.00 4.80 4.78 99 1009.2
20260506200747 50 0.0 1.7 0.00 4.81 4.78 99 1009.1
20260506195059 50 0.0 0.9 0.00 4.81 4.78 99 1008.9
20260506194034 50 0.0 1.7 0.01 4.82 4.78 99 1008.7
20260506193058 50 0.0 0.9 0.04 4.82 4.78 99 1008.5
20260506192035 50 0.0 0.0 0.12 4.82 4.78 99 1008.2
20260506191059 50 0.0 1.7 0.28 4.82 4.78 99 1008.0
20260506190035 50 339 0.9 2.6 0.30 4.82 4.78 99 1007.5
20260506185059 50 45 0.0 2.6 0.30 4.82 4.78 99 1007.3
20260506184035 50 90 0.0 1.7 0.28 4.81 4.77 99 1008.2
20260506183059 51 0.0 1.7 0.26 4.78 4.75 99 1008.9
20260506182035 51 248 0.0 2.6 0.18 4.70 4.67 99 1008.9
20260506181059 51 0.0 0.9 0.01 4.54 4.50 99 1008.0
20260506180347 51 0.0 0.0 0.00 4.52 4.49 99 1007.4
20260506175059 51 0.0 0.9 0.00 4.52 4.49 99 1007.1
20260506174034 52 0.0 0.0 0.00 4.52 4.49 99 1007.0
20260506173100 52 0.0 0.0 0.00 4.52 4.49 99 1006.8
20260506172035 52 0.0 0.9 0.00 4.52 4.49 99 1006.7
20260506171059 52 0.0 0.0 0.00 4.54 4.49 99 1006.5
20260506170035 52 0.0 0.0 0.00 4.55 4.49 99 1006.6
20260506165059 52 0.0 0.9 0.00 4.55 4.49 99 1006.5
20260506164035 52 0.0 0.0 0.00 4.55 4.49 99 1006.5
20260506163100 52 0.0 0.9 0.00 4.56 4.49 99 1006.4
20260506162034 52 0.0 0.9 0.00 4.56 4.49 99 1005.8
20260506161058 52 0 0.0 1.7 0.00 4.57 4.49 99 1005.4
20260506160259 53 0.0 1.7 0.00 4.57 4.49 99 1005.3
20260506155100 53 0.0 1.7 0.09 4.58 4.49 98 1005.5
20260506154035 53 0.0 1.7 0.22 4.61 4.49 98 1005.6
20260506153101 53 0.0 1.7 0.43 4.62 4.49 98 1005.9
20260506152035 52 0.0 1.7 0.69 4.64 4.49 99 1005.9
20260506151059 52 0.0 0.9 0.99 4.65 4.49 99 1005.8
20260506150035 52 0.0 1.7 1.24 4.65 4.49 99 1005.8
20260506145059 51 0.0 0.9 1.89 4.57 4.39 99 1006.2
20260506144035 50 0.0 0.9 2.95 4.44 4.26 99 1006.4
20260506143059 50 0 0.0 1.7 3.44 4.24 4.06 99 1006.3
20260506142035 49 0.0 1.7 3.32 3.98 3.80 99 1006.1
20260506141100 50 341 0.0 3.5 3.05 3.67 3.50 98 1006.1
20260506140123 50 88 0.0 3.5 2.80 3.43 3.25 95 1006.2
20260506135059 52 7 1.7 9.6 2.08 2.68 2.50 92 1006.5
20260506134035 56 0.0 1.7 0.89 1.49 1.31 90 1006.5
20260506133101 59 0.0 0.9 0.20 0.80 0.63 88 1006.2
20260506132035 59 0.0 0.9 0.06 0.67 0.48 88 1006.2
20260506131059 60 0.0 0.9 0.02 0.64 0.45 88 1006.3
20260506130035 60 0.0 0.9 0.04 0.64 0.45 88 1006.3
20260506125059 60 0.0 0.9 0.01 0.61 0.43 88 1006.5
20260506124036 60 0.0 1.7 0.01 0.61 0.43 88 1006.4
20260506123059 60 0.0 1.7 0.01 0.63 0.43 86 1006.4
20260506122035 60 0.0 0.9 0.01 0.63 0.43 86 1006.3
20260506121100 61 0.0 0.9 0.01 0.63 0.43 84 1006.2
20260506120523 62 0.0 0.9 0.00 0.61 0.41 82 1006.4
20260506115059 62 0.0 0.9 0.00 0.63 0.41 83 1006.2
20260506114035 62 0.0 1.7 0.00 0.64 0.41 82 1006.3
20260506113100 61 0.0 0.9 0.00 0.65 0.41 85 1006.4
20260506112036 60 0.0 1.7 0.00 0.65 0.41 86 1006.5
20260506111059 59 0.0 0.9 0.00 0.66 0.41 87 1006.8
20260506110036 59 0.0 0.9 0.00 0.66 0.41 88 1006.9
20260506105059 59 0 0.0 2.6 0.00 0.67 0.41 89 1006.9
20260506104036 59 188 1.7 12.2 0.00 0.67 0.41 90 1007.0
20260506103100 59 0.0 0.9 0.00 0.69 0.41 93 1006.8
20260506102035 58 0.0 0.9 0.00 0.70 0.41 95 1007.0
20260506101059 58 0.0 0.9 0.00 0.70 0.41 98 1006.9
20260506100923 57 0.0 0.9 0.00 0.71 0.41 99 1007.0
20260506095100 57 0.0 0.9 0.05 0.71 0.41 99 1007.0
20260506094035 56 0.0 1.7 0.07 0.72 0.41 98 1007.0
20260506093100 56 0.0 0.9 0.09 0.73 0.41 97 1007.0
20260506092038 55 0.0 0.9 0.13 0.73 0.41 97 1006.9
20260506091059 55 0.0 0.9 0.21 0.74 0.41 97 1006.5
20260506090036 55 0.0 0.9 0.25 0.74 0.41 97 1005.7
20260506085101 55 0.0 0.9 0.22 0.70 0.37 97 1006.0
20260506084036 55 0.0 1.7 0.20 0.67 0.34 97 1006.8
20260506083059 55 0.0 1.7 0.19 0.65 0.32 97 1007.1
20260506082036 55 0.0 0.9 0.15 0.63 0.28 97 1007.2
20260506081100 55 0.0 0.9 0.07 0.56 0.20 97 1007.1
20260506080748 55 0.0 0.9 0.04 0.53 0.17 97 1007.2
20260506073059 56 0.0 0.9 0.01 0.53 0.13 97 1007.0
20260506072036 56 0.0 0.9 0.01 0.56 0.13 97 1007.0
20260506071100 56 0.0 1.7 0.01 0.58 0.13 97 1007.1
20260506062035 56 0.0 0.9 0.01 0.76 0.12 97 1007.3
20260506061100 56 0.0 0.9 0.02 0.78 0.12 97 1007.4
20260506060748 55 0.0 1.7 0.02 0.78 0.11 97 1007.3
20260506051100 55 0.0 0.9 0.06 0.78 0.09 97 1007.6
20260506045059 55 0.0 0.9 0.02 0.74 0.06 97 1007.8
20260506044036 55 0.0 0.9 0.02 0.74 0.06 97 1007.9
20260506043100 55 0.0 0.9 0.02 0.74 0.06 97 1007.9
20260506042036 55 0.0 1.7 0.02 0.73 0.05 97 1008.0
20260506041100 55 0.0 0.9 0.01 0.72 0.04 97 1008.1
20260506040748 55 0.0 0.9 0.02 0.72 0.04 97 1008.2
20260506035100 55 0.0 1.7 0.02 0.72 0.04 97 1008.1
20260506034036 55 0.0 1.7 0.02 0.72 0.04 97 1008.1
20260506033100 55 0.0 0.9 0.04 0.72 0.04 97 1008.1
20260506032036 55 0.0 0.9 0.02 0.71 0.02 97 1008.0
20260506031100 55 0.0 0.9 0.02 0.71 0.02 97 1008.3
20260506030036 55 0.0 1.7 0.01 0.70 0.01 97 1008.6
20260506025100 55 0.0 0.9 0.01 0.70 0.01 97 1008.8
20260506024036 55 0.0 0.9 0.01 0.70 0.01 97 1008.8